Weather History for Baraboo, WI

Change the Weather History Date:

Thursday, November 14, 2013

  Actual Average Record
Temperature  
Mean Temperature 40 °F -  
Max Temperature 47 °F 43 °F 70 °F (1971)
Min Temperature 32 °F 23 °F -3 °F (1959)
Degree Days  
Heating Degree Days 26    
Moisture  
Dew Point 23 °F    
Average Humidity 53    
Maximum Humidity 61    
Minimum Humidity 44    
Precipitation  
Precipitation 0.00 in - - ()
Sea Level Pressure  
Sea Level Pressure 29.89 in    
Wind  
Wind Speed 12 mph (SW)    
Max Wind Speed 20 mph    
Max Gust Speed 25 mph    
Visibility 10 miles    
Events      
Averages and records for this station are not official NWS values.
T = Trace of Precipitation, MM = Missing Value Source: NWS Daily Summary

Daily Weather History Graph

Daily Weather History Graph

Search for Another Location

Airport:

Trip Planner

Search our weather history database for the weather conditions in past years. The results will help you decide how hot, cold, wet, or windy it might be!

Date:

Astronomy

Nov. 14, 2013 Rise Set
Actual Time 6:51 AM CST 4:34 PM CST
Civil Twilight 6:21 AM CST 5:05 PM CST
Nautical Twilight 5:46 AM CST 5:40 PM CST
Astronomical Twilight 5:12 AM CST 6:13 PM CST
Moon 3:00 PM CST (11/14) 3:42 AM CST (11/14)
Length of Visible Light 10h 44m
Length of Day
9h 42m
Waxing Gibbous, 92% of the Moon is Illuminated
Nov 14
Waxing Gibbous
Nov 17
Full
Nov 25
Last Quarter
Dec 2
New
Dec 9
First Quarter

Hourly Weather History & Observations

Time (CST) Temp. Windchill Dew Point Humidity Pressure Visibility Wind Dir Wind Speed Gust Speed Precip Events Conditions
12:15 AM 35.1 °F 25.2 °F 14.9 °F 44% 29.99 in 10.0 mi WSW 16.1 mph 20.7 mph N/A   Clear
12:35 AM 35.1 °F 25.9 °F 14.9 °F 44% 29.98 in 10.0 mi SW 13.8 mph 19.6 mph N/A   Clear
12:55 AM 34.9 °F 24.2 °F 15.4 °F 45% 29.97 in 10.0 mi SW 18.4 mph 21.9 mph N/A   Clear
1:15 AM 34.7 °F 25.1 °F 15.8 °F 46% 29.97 in 10.0 mi SW 15.0 mph 23.0 mph N/A   Clear
1:35 AM 34.7 °F 23.7 °F 16.0 °F 46% 29.96 in 10.0 mi WSW 19.6 mph 25.3 mph N/A   Clear
1:55 AM 34.3 °F 24.2 °F 16.3 °F 48% 29.96 in 10.0 mi SW 16.1 mph 21.9 mph N/A   Clear
2:15 AM 33.8 °F 24.3 °F 16.7 °F 50% 29.96 in 10.0 mi SW 13.8 mph 23.0 mph N/A   Clear
2:35 AM 33.8 °F 23.9 °F 16.7 °F 50% 29.95 in 10.0 mi SW 15.0 mph 19.6 mph N/A   Clear
2:55 AM 33.1 °F 24.4 °F 17.2 °F 52% 29.95 in 10.0 mi SW 11.5 mph - N/A   Clear
3:15 AM 33.1 °F 23.4 °F 17.4 °F 53% 29.94 in 10.0 mi SW 13.8 mph - N/A   Clear
3:35 AM 32.9 °F 23.2 °F 17.4 °F 53% 29.94 in 10.0 mi SW 13.8 mph 18.4 mph N/A   Clear
3:55 AM 32.9 °F 24.1 °F 17.6 °F 53% 29.94 in 10.0 mi SW 11.5 mph - N/A   Clear
4:15 AM 32.2 °F 24.4 °F 18.1 °F 56% 29.93 in 10.0 mi SW 9.2 mph - N/A   Clear
4:35 AM 32.5 °F 24.8 °F 18.1 °F 55% 29.94 in 10.0 mi SW 9.2 mph - N/A   Clear
4:55 AM 32.4 °F 24.6 °F 18.3 °F 56% 29.94 in 10.0 mi SW 9.2 mph 18.4 mph N/A   Clear
5:15 AM 32.4 °F 24.6 °F 18.5 °F 57% 29.93 in 10.0 mi WSW 9.2 mph - N/A   Clear
5:35 AM 32.2 °F 23.8 °F 18.7 °F 58% 29.94 in 10.0 mi WSW 10.4 mph - N/A   Clear
5:55 AM 32.0 °F 23.0 °F 18.9 °F 58% 29.92 in 10.0 mi SW 11.5 mph - N/A   Clear
6:15 AM 32.0 °F 23.0 °F 19.2 °F 59% 29.92 in 10.0 mi SW 11.5 mph - N/A   Clear
6:35 AM 32.4 °F 24.0 °F 19.4 °F 59% 29.92 in 10.0 mi SW 10.4 mph 16.1 mph N/A   Clear
6:55 AM 32.5 °F 22.7 °F 19.4 °F 58% 29.91 in 10.0 mi SW 13.8 mph 19.6 mph N/A   Clear
7:15 AM 33.1 °F 23.9 °F 19.9 °F 59% 29.91 in 10.0 mi SW 12.7 mph 18.4 mph N/A   Clear
7:35 AM 33.1 °F 24.4 °F 20.3 °F 59% 29.92 in 10.0 mi SW 11.5 mph - N/A   Clear
7:55 AM 33.8 °F 25.8 °F 20.5 °F 58% 29.92 in 10.0 mi SW 10.4 mph - N/A   Clear
8:15 AM 34.2 °F 25.2 °F 20.7 °F 58% 29.92 in 10.0 mi SSW 12.7 mph - N/A   Clear
8:35 AM 34.7 °F 25.5 °F 20.8 °F 57% 29.92 in 10.0 mi SW 13.8 mph 19.6 mph N/A   Clear
8:55 AM 35.2 °F 26.2 °F 21.2 °F 57% 29.91 in 10.0 mi SW 13.8 mph 21.9 mph N/A   Clear
9:15 AM 35.8 °F 27.3 °F 21.4 °F 56% 29.91 in 10.0 mi SW 12.7 mph 19.6 mph N/A   Clear
9:35 AM 36.7 °F 29.4 °F 22.3 °F 56% 29.91 in 10.0 mi SW 10.4 mph - N/A   Clear
9:55 AM 37.8 °F 29.0 °F 22.1 °F 53% 29.91 in 10.0 mi SW 15.0 mph - N/A   Clear
10:15 AM 39.2 °F 33.0 °F 23.2 °F 53% 29.91 in 10.0 mi WSW 9.2 mph 18.4 mph N/A   Clear
10:35 AM 40.1 °F 32.4 °F 23.2 °F 51% 29.90 in 10.0 mi SW 13.8 mph 17.3 mph N/A   Clear
10:55 AM 40.8 °F 33.7 °F 23.5 °F 50% 29.89 in 10.0 mi SW 12.7 mph 18.4 mph N/A   Clear
11:15 AM 41.5 °F 34.6 °F 24.1 °F 50% 29.89 in 10.0 mi WSW 12.7 mph - N/A   Clear
11:35 AM 42.4 °F 36.5 °F 24.4 °F 49% 29.88 in 10.0 mi SW 10.4 mph 18.4 mph N/A   Clear
11:55 AM 43.9 °F 37.5 °F 25.2 °F 48% 29.87 in 10.0 mi WSW 12.7 mph - N/A   Clear
12:15 PM 44.2 °F 38.4 °F 25.5 °F 48% 29.86 in 10.0 mi SW 11.5 mph - N/A   Clear
12:35 PM 44.8 °F 39.4 °F 25.5 °F 47% 29.85 in 10.0 mi WSW 10.4 mph - N/A   Clear
12:55 PM 45.3 °F 39.7 °F 26.1 °F 47% 29.85 in 10.0 mi WSW 11.5 mph - N/A   Clear
1:15 PM 46.0 °F 40.2 °F 25.7 °F 45% 29.85 in 10.0 mi WSW 12.7 mph - N/A   Clear
1:35 PM 47.1 °F - 26.8 °F 45% 29.85 in 10.0 mi SW 9.2 mph - N/A   Clear
1:55 PM 45.9 °F 40.0 °F 26.1 °F 46% 29.85 in 10.0 mi SW 12.7 mph - N/A   Clear
2:15 PM 45.9 °F 40.8 °F 26.8 °F 47% 29.85 in 10.0 mi SW 10.4 mph 16.1 mph N/A   Clear
2:35 PM 45.7 °F 39.8 °F 26.8 °F 48% 29.85 in 10.0 mi SW 12.7 mph - N/A   Clear
2:55 PM 45.1 °F 39.5 °F 26.6 °F 48% 29.86 in 10.0 mi SW 11.5 mph - N/A   Clear
3:15 PM 44.6 °F 39.7 °F 26.6 °F 49% 29.86 in 10.0 mi SW 9.2 mph - N/A   Clear
3:35 PM 43.9 °F 38.8 °F 26.8 °F 51% 29.86 in 10.0 mi SW 9.2 mph - N/A   Clear
3:55 PM 43.3 °F 37.7 °F 26.6 °F 52% 29.85 in 10.0 mi SW 10.4 mph - N/A   Clear
4:15 PM 42.8 °F 38.6 °F 26.6 °F 53% 29.86 in 10.0 mi SW 6.9 mph - N/A   Clear
4:35 PM 41.5 °F 37.8 °F 27.0 °F 56% 29.86 in 10.0 mi SW 5.8 mph - N/A   Clear
4:55 PM 41.5 °F 35.9 °F 26.6 °F 55% 29.86 in 10.0 mi SW 9.2 mph - N/A   Scattered Clouds
5:15 PM 42.1 °F 36.1 °F 26.6 °F 54% 29.85 in 10.0 mi SSW 10.4 mph - N/A   Scattered Clouds
5:35 PM 42.3 °F 36.3 °F 26.6 °F 54% 29.86 in 10.0 mi SSW 10.4 mph - N/A   Scattered Clouds
5:55 PM 42.1 °F 38.4 °F 26.6 °F 54% 29.87 in 10.0 mi SW 5.8 mph - N/A   Scattered Clouds
6:15 PM 42.4 °F 38.1 °F 26.6 °F 54% 29.87 in 10.0 mi SW 6.9 mph - N/A   Mostly Cloudy
6:35 PM 42.4 °F 37.0 °F 27.1 °F 55% 29.87 in 10.0 mi SSW 9.2 mph - N/A   Overcast
6:55 PM 43.0 °F 35.7 °F 26.6 °F 52% 29.85 in 10.0 mi SSW 15.0 mph 18.4 mph N/A   Overcast
7:15 PM 43.7 °F 37.7 °F 26.4 °F 51% 29.85 in 10.0 mi SW 11.5 mph 20.7 mph N/A   Overcast
7:35 PM 43.5 °F 38.9 °F 26.6 °F 51% 29.87 in 10.0 mi WSW 8.1 mph - N/A   Overcast
7:55 PM 43.0 °F 37.2 °F 27.5 °F 54% 29.86 in 10.0 mi SW 10.4 mph 16.1 mph N/A   Light Drizzle
8:15 PM 43.2 °F 37.4 °F 27.1 °F 53% 29.86 in 10.0 mi SW 10.4 mph 17.3 mph N/A   Overcast
8:35 PM 43.0 °F 37.7 °F 27.1 °F 54% 29.86 in 10.0 mi WSW 9.2 mph - N/A   Overcast
8:55 PM 43.0 °F 37.2 °F 27.3 °F 54% 29.87 in 10.0 mi WSW 10.4 mph - N/A   Overcast
9:15 PM 43.2 °F 37.4 °F 27.1 °F 53% 29.86 in 10.0 mi SW 10.4 mph 17.3 mph N/A   Overcast
9:35 PM 42.8 °F 37.5 °F 27.5 °F 55% 29.86 in 10.0 mi SW 9.2 mph - N/A   Overcast
9:55 PM 42.8 °F 38.0 °F 27.5 °F 55% 29.86 in 10.0 mi WSW 8.1 mph - N/A   Overcast
10:15 PM 42.3 °F 37.3 °F 27.5 °F 56% 29.86 in 10.0 mi SW 8.1 mph - N/A   Overcast
10:35 PM 41.7 °F 37.3 °F 27.7 °F 58% 29.85 in 10.0 mi WSW 6.9 mph - N/A   Mostly Cloudy
10:55 PM 41.4 °F 36.8 °F 27.9 °F 59% 29.85 in 10.0 mi SW 6.9 mph - N/A   Scattered Clouds
11:15 PM 41.2 °F 36.0 °F 27.9 °F 59% 29.85 in 10.0 mi WSW 8.1 mph - N/A   Clear
11:35 PM 40.8 °F 36.2 °F 27.9 °F 60% 29.85 in 10.0 mi SW 6.9 mph - N/A   Scattered Clouds
11:55 PM 40.5 °F 35.8 °F 27.9 °F 61% 29.84 in 10.0 mi WSW 6.9 mph - N/A   Scattered Clouds